Weather in Kalyta

Ukraine / Kyiv Region     50°45′01″N   31°01′34″E
temp.,
°C
wind,
m/s
gust,
m/s
humid.,
%
clouds,
%
prec.,
mm/h
press.,
hPa
HPBL,
m
7 march, sun
sun723:00−6w34740 0.0 102568
02:00−5wsw49790 0.0 1024191
05:00−5sw613840 0.0 1021345
08:00−3sw7168137 0.0 1018587
11:000wsw9167898 0.0 10151200
14:00+2wsw9167998 0.0 10121334
17:00+1w81477100 0.0 1011989
20:000w7158789 0.0 1010741
8 march, mon
mon823:00−1w6148739 0.0 1010733
02:00−1w6138968 0.0 1009773
05:00−1w6138997 0.0 1008647
08:00−2wnw5108299 0.1 1010864
11:00−1wnw68682 0.0 10111289
14:000w586145 0.1 10111567
17:00−1wnw61172100 0.4 1011968
20:00−3nw5127581 0.4 1014540
9 march, tue
tue923:00−4nw497921 0.0 1015359
02:00−5nw488430 0.0 1017340
05:00−6nw378934 0.0 1018295
08:00−6n478366 0.1 1020647
11:00−4n357049 0.0 1021882
14:00−3n246173 0.0 10221053
17:00−4e237694 0.0 1023173
20:00−6e127797 0.0 102575
10 march, wed
wed1023:00−7ese127899 0.0 102572
02:00−7se238372 0.0 102669
05:00−8se338346 0.0 102593
08:00−7se348072 0.0 1026153
11:00−4se347071 0.0 1026367
14:00−3se336843 0.0 1025532
17:00−5se35800 0.0 1025244
20:00−6se34800 0.0 1026122
11 march, thu
thu1123:00−7sse33780 0.0 102697
02:00−7sse34810 0.0 102679
05:00−7sse34820 0.0 102672
08:00−6sse35760 0.0 1026156
11:00−3sse45630 0.0 1026489
14:00−1sse46550 0.0 1025874
17:00−2sse58660 0.0 1024336
20:00−3sse6116733 0.0 1024356